Medford, WI

2:12 PM CDT on June 28, 2017 (GMT -0500)
Taylor County

Weather History for KMDZ - March, 2013

Change the Weather History Date:

Monday, March 11, 2013

  Actual Average Record
Temperature  
Mean Temperature 26 °F -  
Max Temperature 28 °F 33 °F 60 °F (2012)
Min Temperature 21 °F 14 °F -22 °F (1948)
Degree Days  
Heating Degree Days 40    
Moisture  
Dew Point 21 °F    
Average Humidity 85    
Maximum Humidity 93    
Minimum Humidity 74    
Precipitation  
Precipitation 0.35 in - - ()
Sea Level Pressure  
Sea Level Pressure 29.66 in    
Wind  
Wind Speed 12 mph (NNW)    
Max Wind Speed 15 mph    
Max Gust Speed 22 mph    
Visibility 7 miles    
Events Snow    
Averages and records for this station are not official NWS values.
T = Trace of Precipitation, MM = Missing Value Source: NWS Daily Summary

Daily Weather History Graph

Daily Weather History Graph

Search for Another Location

Airport or City:

Trip Planner

Search our weather history database for the weather conditions in past years. The results will help you decide how hot, cold, wet, or windy it might be!

Date:

Astronomy

Mar. 11, 2013 Rise Set
Actual Time 7:20 AM CDT 7:02 PM CDT
Civil Twilight 6:51 AM CDT 7:31 PM CDT
Nautical Twilight 6:17 AM CDT 8:05 PM CDT
Astronomical Twilight 5:42 AM CDT 8:40 PM CDT
Moon 6:53 AM CDT (3/11) 7:17 PM CDT (3/11)
Length of Visible Light 12h 40m
Length of Day
11h 41m
Waning Crescent, 0% of the Moon is Illuminated
Mar 11
Waning Crescent
Mar 11
New
Mar 19
First Quarter
Mar 27
Full
Apr 2
Last Quarter

Hourly Weather History & Observations

Time (CDT) Temp. Windchill Dew Point Humidity Pressure Visibility Wind Dir Wind Speed Gust Speed Precip Events Conditions
12:15 AM 28.4 °F 17.5 °F 26.6 °F 93% 29.72 in 0.8 mi NNE 13.8 mph 20.7 mph N/A Snow Snow
12:35 AM 28.4 °F 17.5 °F 26.6 °F 93% 29.71 in 0.8 mi North 13.8 mph 20.7 mph N/A Snow Snow
12:55 AM 28.4 °F 18.0 °F 26.6 °F 93% 29.70 in 0.8 mi NNE 12.7 mph 18.4 mph N/A Snow Snow
1:15 AM 28.4 °F 17.0 °F 26.6 °F 93% 29.69 in - NNE 15.0 mph 19.6 mph N/A   Overcast
1:35 AM 28.4 °F 18.0 °F 26.6 °F 93% 29.69 in - North 12.7 mph 19.6 mph N/A   Overcast
1:55 AM 28.4 °F 17.5 °F 26.6 °F 93% 29.68 in - NNE 13.8 mph 18.4 mph N/A   Overcast
4:15 PM 28.4 °F 19.7 °F 24.8 °F 86% 29.58 in 3.0 mi North 9.2 mph - N/A Snow Light Snow
4:35 PM 28.4 °F 19.7 °F 24.8 °F 86% 29.59 in 3.0 mi NNW 9.2 mph 16.1 mph N/A Snow Light Snow
4:55 PM 28.4 °F 18.5 °F 23.0 °F 80% 29.59 in 2.5 mi NNW 11.5 mph 21.9 mph N/A Snow Light Snow
5:15 PM 26.6 °F 15.2 °F 23.0 °F 86% 29.60 in 1.8 mi NNW 13.8 mph 21.9 mph N/A Snow Light Snow
5:35 PM 26.6 °F 17.5 °F 21.2 °F 80% 29.60 in 1.2 mi NNW 9.2 mph 18.4 mph 0.35 in Snow Light Snow
6:15 PM 24.8 °F 14.0 °F 21.2 °F 86% 29.61 in 10.0 mi North 11.5 mph 17.3 mph N/A   Overcast
6:35 PM 24.8 °F 15.3 °F 21.2 °F 86% 29.61 in 10.0 mi NNW 9.2 mph - N/A Snow Light Snow
6:55 PM 26.6 °F 16.8 °F 19.4 °F 74% 29.62 in 10.0 mi NNW 10.4 mph 18.4 mph N/A   Overcast
7:35 PM 24.8 °F 14.0 °F 19.4 °F 80% 29.63 in 10.0 mi NW 11.5 mph 18.4 mph N/A   Overcast
7:55 PM 24.8 °F 15.3 °F 19.4 °F 80% 29.65 in 10.0 mi NW 9.2 mph 18.4 mph N/A   Overcast
8:15 PM 24.8 °F 12.4 °F 19.4 °F 80% 29.66 in 10.0 mi NW 15.0 mph 20.7 mph N/A   Overcast
8:35 PM 24.8 °F 14.0 °F 19.4 °F 80% 29.66 in 10.0 mi NW 11.5 mph 17.3 mph N/A   Overcast
8:55 PM 24.8 °F 14.0 °F 19.4 °F 80% 29.67 in 10.0 mi NW 11.5 mph - N/A   Overcast
9:15 PM 24.8 °F 14.6 °F 17.6 °F 74% 29.68 in 10.0 mi NNW 10.4 mph 16.1 mph N/A   Overcast
9:35 PM 23.0 °F 12.4 °F 17.6 °F 80% 29.68 in 10.0 mi NNW 10.4 mph - N/A   Overcast
9:55 PM 23.0 °F 15.8 °F 17.6 °F 80% 29.69 in 10.0 mi NNW 5.8 mph - N/A   Overcast
10:15 PM 23.0 °F 13.9 °F 17.6 °F 80% 29.70 in 10.0 mi NW 8.1 mph - N/A Snow Light Snow
10:35 PM 23.0 °F 13.9 °F 17.6 °F 80% 29.70 in 10.0 mi NW 8.1 mph - N/A Snow Light Snow
10:55 PM 23.0 °F 14.7 °F 19.4 °F 86% 29.69 in 10.0 mi NW 6.9 mph - N/A Snow Light Snow
11:15 PM 23.0 °F 13.9 °F 19.4 °F 86% 29.69 in 10.0 mi WNW 8.1 mph - N/A Snow Light Snow
11:35 PM 23.0 °F 14.7 °F 19.4 °F 86% 29.70 in 10.0 mi West 6.9 mph - N/A Snow Light Snow
11:55 PM 21.2 °F 13.6 °F 19.4 °F 93% 29.70 in 10.0 mi West 5.8 mph - N/A Snow Light Snow